CAPE
0 1 2 1 2 2 1 1 1 3 5 4 1 2 2 2 0 0 0 0 0 0 0 0 0 0 0 0 0 0 0 0 0 0 0 0 0 0 0 0 0 0 0 571 1458
1 1 1 2 1 1 1 2 1 1 1 2 2 3 1 0 0 0 0 0 0 0 0 0 0 0 0 0 0 0 0 0 0 0 0 0 0 0 0 0 0 0 0 657 1204
3 2 3 3 2 1 1 1 2 1 2 1 1 1 2 0 0 0 0 0 0 0 0 0 0 0 0 0 0 0 0 0 0 0 0 0 0 0 0 0 0 0 0 0 2
3 3 3 2 2 3 1 3 2 2 2 3 2 2 3 0 0 0 0 0 0 0 0 0 0 0 0 0 0 0 0 0 0 0 0 0 0 0 0 0 0 0 0 0 0
2 2 2 2 2 3 2 1 1 3 4 2 1 2 2 0 0 0 0 0 0 0 0 0 0 0 0 0 0 0 0 0 0 0 0 0 0 0 0 0 0 0 0 0 0
1 2 1 2 1 1 1 0 1 3 2 5 2 6 6 0 0 0 0 0 0 0 0 0 0 0 0 0 0 0 0 0 0 0 0 0 0 0 0 0 0 0 0 0 0
0 1 1 1 0 0 0 0 0 0 1 5 5 5 6 0 0 0 0 0 0 0 0 0 0 0 0 0 0 0 0 0 0 0 0 0 0 0 0 0 0 0 0 0 0
1 1 1 1 0 0 0 0 0 0 0 4 18 16 1 0 0 0 0 0 0 0 0 0 0 0 0 0 0 0 0 0 0 0 0 0 0 0 0 0 0 0 0 0 0
2 0 0 0 0 0 0 0 0 0 0 1 10 8 0 0 0 0 0 0 0 0 0 0 0 0 0 0 0 0 0 0 0 0 0 0 0 0 0 0 0 0 0 0 0
0 0 0 0 0 0 0 0 0 0 0 1 2 1 0 0 0 0 0 0 0 0 0 0 0 0 0 0 0 0 0 0 0 0 0 0 0 0 0 0 0 0 0 0 0
0 0 0 0 0 0 0 0 0 0 2 0 0 0 0 0 0 0 0 0 0 0 0 0 0 0 0 0 0 0 0 0 0 0 0 0 0 0 0 0 0 0 0 0 0
0 0 0 0 0 0 2 0 0 0 0 0 0 0 0 0 0 0 0 0 0 0 0 0 0 0 0 0 0 0 0 0 0 0 0 0 0 0 0 0 0 0 0 0 0
0 0 0 0 0 0 0 0 0 0 0 0 0 0 0 0 0 0 0 0 0 0 0 0 0 0 0 0 0 0 0 0 0 0 0 0 0 0 0 0 0 0 0 0 0
0 0 0 0 0 0 0 0 0 0 0 0 0 0 0 0 0 0 1 0 0 0 17 0 0 0 0 0 0 0 0 0 0 0 0 0 0 0 0 0 0 0 0 0 0
0 0 0 8 1 0 0 0 0 0 0 0 0 0 0 0 0 0 0 0 0 0 26 0 0 2 0 0 0 0 0 0 0 0 0 0 0 0 0 0 0 0 0 0 0
0 0 0 0 0 0 0 0 0 0 0 1 21 12 6 0 7 0 11 5 1 0 14 29 37 0 0 0 0 0 0 0 0 0 0 0 0 0 0 0 0 0 0 0 0
0 0 0 0 0 0 0 0 0 0 0 24 28 8 0 19 3 0 0 14 2 9 11 19 23 1 0 0 1 0 0 0 0 0 0 0 0 0 0 0 0 0 0 0 12
0 0 0 0 0 0 0 2 0 0 0 0 41 0 6 57 36 0 0 0 0 9 6 6 0 0 0 0 0 0 0 0 0 0 0 0 0 0 0 0 6 3 0 2 9
0 0 0 0 0 0 0 6 0 0 0 0 0 26 0 4 16 9 0 0 3 3 0 0 0 31 0 0 0 0 0 0 0 0 0 0 0 0 0 1 0 0 1 0 3
0 0 0 0 0 0 9 0 0 0 0 0 8 10 0 0 11 4 0 0 0 2 0 2 0 2 0 1 0 0 0 0 0 0 0 0 27 68 79 29 0 21 27 14 21
0 0 22 15 28 32 6 0 0 0 8 5 29 17 15 6 37 2 0 14 3 42 0 2 0 15 37 11 0 0 0 0 0 0 0 0 0 0 91 52 60 19 0 0 0
0 0 32 10 14 18 4 7 17 14 53 9 2 22 2 2 0 0 0 1 0 0 9 0 2 0 0 9 3 62 0 0 4 0 0 0 0 1 6 13 4 11 0 0 24
0 0 0 3 0 0 0 0 0 30 5 10 0 0 0 0 4 0 0 0 0 0 21 0 1 0 0 0 10 52 0 11 0 9 0 1 1 0 0 0 0 0 0 0 0
0 0 0 0 7 2 0 0 0 8 0 50 24 9 3 2 34 0 0 0 0 0 2 28 11 0 0 0 26 34 21 77 26 3 8 3 2 0 0 0 0 0 0 0 0
4 13 11 0 0 0 0 6 4 1 12 33 1 0 0 0 11 4 19 0 0 0 0 10 10 3 10 0 0 5 4 32 31 21 2 3 6 6 0 0 0 0 0 0 0
18 7 13 0 0 0 3 0 12 5 11 6 0 1 2 1 4 12 0 0 0 1 11 7 0 0 0 10 0 0 0 1 0 22 0 0 6 5 0 0 0 0 0 0 0
0 0 14 0 5 2 1 0 2 1 3 18 0 0 2 2 0 1 6 22 0 0 0 1 0 0 0 3 6 8 0 1 0 21 0 0 0 1 0 0 0 0 0 0 0
CIN
0 0 0 -0 -1 -1 0 -0 0 -0 -0 0 0 -0 0 -0 0 0 0 0 0 0 0 0 0 0 0 0 0 0 0 0 0 0 0 0 0 0 0 0 0 0 0 -19 -26
-0 0 0 -1 -1 -0 -0 0 -0 -0 0 0 -0 -0 0 0 0 0 0 0 0 0 0 0 0 0 0 0 0 0 0 0 0 0 0 0 0 0 0 0 0 0 0 -31 -19
-0 -1 -2 -1 -0 -0 -1 -0 0 0 -1 -0 -0 -0 0 0 0 0 0 0 0 0 0 0 0 0 0 0 0 0 0 0 0 0 0 0 0 0 0 0 0 0 0 0 -13
-4 -2 -0 -1 -0 -0 -0 0 -0 -0 -1 -0 -0 -0 0 0 0 0 0 0 0 0 0 0 0 0 0 0 0 0 0 0 0 0 0 0 0 0 0 0 0 0 0 0 0
-5 -2 -0 -0 0 -0 -0 0 0 -0 -0 -0 -0 -1 -1 0 0 0 0 0 0 0 0 0 0 0 0 0 0 0 0 0 0 0 0 0 0 0 0 0 0 0 0 0 0
-7 -4 -0 0 0 0 -0 0 -1 -1 -0 -0 -1 -1 -1 0 0 0 0 0 0 0 0 0 0 0 0 0 0 0 0 0 0 0 0 0 0 0 0 0 0 0 0 0 0
-1 0 0 0 -0 -0 0 0 0 0 -0 0 -0 -2 -0 0 0 0 0 0 0 0 0 0 0 0 0 0 0 0 0 0 0 0 0 0 0 0 0 0 0 0 0 0 0
-0 -1 -1 0 0 0 0 0 0 0 -0 0 -0 -0 0 0 0 0 0 0 0 0 0 0 0 0 0 0 0 0 0 0 0 0 0 0 0 0 0 0 0 0 0 0 0
-4 0 0 0 0 0 0 0 0 0 0 -2 -0 -1 0 0 0 0 0 0 0 0 0 0 0 0 0 0 0 0 0 0 0 0 0 0 0 0 0 0 0 0 0 0 0
0 0 0 0 0 0 0 0 0 0 0 -0 -3 -0 0 0 0 0 0 0 0 0 0 0 0 0 0 0 0 0 0 0 0 0 0 0 0 0 0 0 0 0 0 0 0
0 0 0 -0 0 0 0 0 0 0 0 0 0 0 0 0 0 0 0 0 0 0 0 0 0 0 0 0 0 0 0 0 0 0 0 0 0 0 0 0 0 0 0 0 0
0 0 0 0 0 0 0 0 0 0 0 0 0 0 0 0 0 0 -0 0 0 0 0 0 0 0 0 0 0 0 0 0 0 0 0 0 0 0 0 0 0 0 0 0 0
0 0 0 0 0 0 0 0 0 0 0 0 0 0 0 0 0 0 -1 0 0 0 0 0 0 0 0 0 0 0 0 0 0 0 0 0 0 0 0 0 0 0 0 0 0
0 0 0 0 0 0 0 0 0 0 0 0 0 0 0 0 0 0 -15 0 0 0 -2 0 0 0 0 0 0 0 0 0 0 0 0 0 0 0 0 0 0 0 0 0 0
0 0 0 0 0 0 0 0 0 0 0 0 -1 0 0 0 0 0 -4 0 0 0 0 0 -1 -35 0 0 0 0 0 0 0 0 0 0 0 0 0 0 0 0 0 0 0
0 0 0 0 0 0 0 0 0 -0 0 -0 -63 -67 -53 0 -7 0 -10 -11 -14 -4 -10 -1 -5 0 0 0 0 0 0 0 0 0 0 0 0 0 0 0 0 0 0 0 0
0 0 0 0 0 0 0 0 0 0 0 -8 -20 -48 -30 -11 -32 0 0 -2 -4 -3 -17 -9 -5 -1 0 -5 -5 0 0 0 0 0 0 0 0 0 0 0 0 0 0 0 -72
0 0 0 0 0 0 0 -3 0 0 0 -4 -26 -7 0 -14 -30 0 -6 -1 -1 -4 -29 -17 0 0 0 0 0 -1 0 0 0 0 0 0 0 0 0 0 -36 -50 0 -60 -92
0 0 0 0 0 0 0 -0 0 0 0 0 0 -3 0 -1 -16 -10 -1 0 -2 -14 -3 0 -4 -3 0 0 0 0 0 0 0 -2 0 0 0 -1 0 -40 0 -1 -77 0 -74
0 0 0 0 0 0 -4 0 0 0 0 0 -1 -6 0 0 -14 -29 0 0 -25 -14 0 0 0 -16 0 -1 0 0 0 0 0 0 0 0 -19 -71 -67 -43 0 -64 -97 -96 -90
0 0 -3 -35 -19 -10 -0 0 0 0 -13 -0 -3 -1 -3 0 -23 -4 0 -28 -5 -17 0 -0 0 -22 -27 -2 0 0 0 0 0 0 0 0 -4 0 -145 -108 -123 -148 0 0 0
0 0 -5 -25 -2 -5 -1 -2 -1 -80 -9 -2 -0 -0 0 0 0 0 0 -3 -1 0 -8 0 -1 0 -0 -37 -111 -60 0 0 -8 -6 0 0 0 -6 -145 -214 -130 -136 0 -5 -159
0 0 0 -8 -0 0 -0 0 0 -8 -24 -14 0 -0 -0 0 -4 0 0 0 0 0 -12 0 -0 0 0 -23 -59 -25 -8 -6 0 -32 -23 -5 -17 -0 0 0 0 0 0 0 0
0 0 0 0 -2 -2 0 0 0 -6 -0 -9 -2 -4 -2 -5 -13 -5 0 0 0 -11 -8 -29 -8 0 0 0 -17 -6 -19 -34 -5 -18 -8 -9 -2 0 0 0 0 0 0 0 0
-3 -2 -1 0 0 0 0 -7 -12 0 -3 -7 -3 -0 0 0 -9 -31 -2 0 -2 0 0 -11 -14 0 0 0 0 -35 -22 -66 -34 -24 -12 -48 -58 -63 0 0 0 0 0 0 0
-0 -0 -0 0 0 0 -6 0 -16 -12 -7 -7 0 0 0 0 -7 -15 -0 0 0 -4 -0 -2 0 0 0 -1 0 0 0 -6 0 -32 -1 0 -24 -97 0 0 0 0 0 0 0
-1 -7 -0 0 -2 -2 -1 -1 -1 -0 -32 -13 0 0 0 -25 0 -14 -8 -11 0 0 0 -2 0 0 0 0 -3 -13 0 -7 -14 -50 0 0 0 -16 0 0 0 0 0 0 0
Wind_Speed
10 2 2 12 20 26 24 24 23 21 18 18 19 35 36 38 40 39 14 18 18 20 23 28 28 25 21 25 29 27 34 39 36 37 38 36 31 28 28 19 17 16 16 10 5
6 9 10 9 4 20 30 31 32 33 31 32 33 35 36 38 41 42 17 13 13 21 24 24 28 23 23 24 25 27 35 37 32 35 38 38 34 29 25 26 20 20 18 7 8
16 16 17 15 15 16 15 14 18 36 36 35 35 35 36 37 32 24 22 14 15 13 15 23 26 28 26 27 26 30 42 35 33 35 36 38 35 31 30 27 24 23 23 24 16
18 23 21 21 23 21 19 19 19 20 20 29 31 35 35 26 26 18 17 20 10 11 17 21 25 30 30 30 29 39 37 38 40 41 40 40 35 33 33 32 30 29 28 30 31
29 28 32 28 28 27 27 25 22 20 23 27 27 27 26 21 14 18 19 24 15 12 17 20 24 26 31 27 31 38 39 37 38 39 42 38 40 38 36 33 34 34 34 35 37
34 35 33 34 35 35 33 31 31 28 29 27 25 25 21 24 24 19 19 21 17 16 18 21 24 23 30 29 27 30 36 41 38 39 41 41 39 38 40 36 38 38 39 40 42
36 34 33 34 34 34 31 29 30 32 30 30 25 24 22 21 23 34 36 21 18 18 23 21 26 26 27 33 29 34 42 39 38 35 39 35 48 45 36 35 38 37 36 36 38
36 35 34 36 35 36 35 35 34 33 32 28 25 21 28 26 25 31 28 26 20 20 20 21 23 32 35 30 35 37 39 44 36 31 31 29 56 44 35 36 36 34 32 30 32
35 33 32 32 34 36 38 40 36 31 27 22 21 20 34 26 23 19 21 25 22 18 22 24 25 29 33 36 38 37 40 40 40 33 34 31 46 38 35 37 35 32 30 29 29
36 32 29 33 32 32 38 39 24 24 18 15 18 24 22 21 20 18 13 17 22 19 24 28 29 34 35 33 39 35 37 37 40 34 33 38 42 34 29 29 33 27 28 23 24
36 34 29 32 34 33 39 33 24 25 18 21 22 22 27 26 37 17 10 13 19 25 27 27 33 36 34 34 33 35 35 34 33 32 33 34 39 31 25 28 31 30 29 24 22
36 38 37 35 34 32 29 23 21 24 40 19 22 24 21 25 33 29 8 12 16 26 21 28 36 33 31 33 36 37 40 42 40 36 28 23 24 25 25 27 26 26 26 23 22
38 38 39 39 35 28 19 18 18 23 33 29 25 23 19 15 18 18 10 9 16 23 22 30 29 30 34 33 35 36 40 40 38 33 23 20 27 23 24 26 25 24 19 20 24
37 36 36 40 30 28 26 19 29 31 31 33 19 15 9 7 12 12 10 8 16 22 23 27 30 27 31 40 35 38 35 38 38 34 32 20 34 30 28 30 27 19 14 13 16
38 36 34 31 28 26 21 25 23 21 32 22 15 11 12 4 16 5 12 8 12 17 18 30 24 33 31 31 37 41 36 35 38 35 31 33 31 29 26 29 24 16 8 6 9
38 35 33 30 18 15 11 15 18 20 25 17 16 20 21 9 4 13 8 8 5 11 38 32 32 35 38 35 30 40 37 37 32 33 38 33 30 33 30 30 13 8 2 2 5
36 34 29 18 21 13 17 14 20 19 20 18 22 23 10 14 8 13 9 21 15 15 30 31 36 37 37 36 34 36 33 33 30 32 36 29 33 33 27 24 6 7 3 2 6
38 30 24 14 8 8 11 13 21 16 12 22 23 26 25 16 11 11 15 11 29 7 20 10 26 29 34 36 30 32 30 29 30 30 29 28 30 31 28 14 7 9 6 4 6
38 32 25 11 3 7 12 19 21 17 19 25 44 34 26 10 20 14 16 16 30 20 8 15 28 25 37 41 37 29 37 27 26 18 23 25 25 25 22 4 7 9 5 1 3
41 31 25 15 7 8 13 18 20 28 41 44 41 29 34 33 11 9 14 24 41 36 30 23 33 35 33 35 37 31 24 34 28 31 25 23 18 13 9 11 11 5 3 1 3
33 34 19 14 10 17 22 22 20 21 33 33 36 36 36 12 11 18 19 22 25 31 12 18 24 28 25 38 25 26 31 25 26 24 24 22 19 16 14 9 7 6 3 5 11
32 34 14 20 21 19 20 20 29 41 37 32 33 38 29 31 18 23 23 16 15 26 28 26 26 33 30 29 28 32 28 28 27 25 25 22 19 21 14 10 4 4 5 6 9
35 25 21 20 20 24 25 27 37 33 33 32 33 29 29 28 26 20 20 21 19 22 22 9 24 32 32 30 30 31 25 25 25 25 30 24 21 19 16 12 10 6 5 7 11
28 29 27 23 21 26 33 36 40 38 34 29 33 30 28 28 27 23 18 17 14 19 27 24 27 35 30 26 24 20 19 24 24 27 25 24 18 16 15 11 11 10 11 15 14
23 24 31 28 32 33 34 38 35 31 28 27 27 29 27 27 28 24 13 15 16 20 26 21 21 20 13 22 19 16 19 23 26 22 25 22 24 20 20 17 10 9 9 11 12
26 27 25 26 23 24 29 32 32 33 33 29 29 31 28 28 29 19 13 14 16 24 27 20 25 17 19 19 23 24 26 12 26 26 24 26 22 19 15 11 20 15 10 9 9
25 24 22 21 21 29 25 35 33 32 28 28 28 27 20 12 20 17 17 14 8 6 15 15 16 18 14 5 9 16 21 20 19 18 21 30 39 18 9 9 10 5 5 6 9
Wind_Direction
280 337 338 25 13 355 358 356 355 354 355 351 345 302 297 295 288 284 240 286 290 294 283 279 278 277 275 271 266 266 263 260 261 261 261 266 281 286 291 285 279 282 281 298 326
24 27 25 21 346 284 297 297 306 322 328 324 321 313 304 297 283 264 262 264 236 280 282 279 272 275 271 271 268 258 260 262 266 267 265 265 279 285 286 285 275 271 283 312 317
23 20 18 18 15 12 8 4 348 316 309 312 315 315 311 310 312 309 311 306 227 259 266 278 274 270 264 265 263 264 260 266 266 265 265 268 275 278 278 274 280 279 275 277 293
17 11 12 9 4 3 1 358 354 351 349 334 329 317 317 327 314 326 318 318 314 261 268 269 270 265 265 262 263 263 265 265 265 265 267 269 277 275 272 272 280 284 283 280 281
360 0 352 356 353 353 351 349 348 346 342 335 332 332 334 319 292 302 302 307 302 277 261 259 261 262 262 265 264 262 265 267 266 266 266 274 271 273 272 277 279 279 278 276 275
348 345 348 344 341 339 340 340 337 336 332 332 332 330 325 308 316 306 301 292 283 272 267 258 264 257 270 261 261 271 265 265 267 266 267 270 273 271 270 277 276 275 274 274 272
346 346 347 344 341 340 341 340 335 330 329 325 327 325 314 289 314 299 294 289 274 272 268 265 256 259 262 268 266 267 265 268 264 267 268 275 268 266 275 278 276 275 273 272 271
345 344 343 340 338 336 335 332 329 327 324 324 324 320 308 313 305 296 287 285 277 276 262 265 256 258 263 269 267 265 267 264 267 268 270 272 263 269 276 273 274 276 274 272 271
344 344 344 343 340 336 332 328 326 324 324 328 327 320 313 323 314 305 276 278 281 273 266 263 259 259 260 261 263 260 262 265 266 268 271 267 267 273 274 271 276 276 274 275 273
344 344 343 342 341 340 335 331 324 328 332 337 329 320 319 324 323 311 313 266 274 271 266 258 258 256 254 253 251 257 260 266 268 268 267 265 264 271 275 275 277 279 284 279 274
345 346 345 343 340 339 337 343 343 337 330 319 313 305 305 309 308 315 304 285 273 265 256 255 253 247 248 252 259 263 262 264 268 273 267 268 266 260 271 276 275 280 283 279 279
347 344 343 341 340 338 338 345 338 334 320 298 283 274 268 295 296 295 292 288 257 257 252 253 248 253 258 255 255 257 260 261 268 272 273 265 258 270 269 274 277 281 282 292 283
347 346 344 341 341 344 348 341 338 328 320 305 284 276 267 255 269 272 254 266 265 259 246 250 265 253 254 254 252 254 255 259 262 269 278 264 262 265 275 283 280 281 287 292 301
347 346 346 344 348 347 337 342 343 346 330 333 343 351 337 229 294 220 251 252 274 256 257 258 258 255 249 250 250 252 253 257 258 266 265 268 261 268 277 276 276 278 285 299 325
345 344 344 346 337 339 345 345 347 357 332 346 12 32 22 120 340 195 194 228 258 260 249 260 254 250 250 251 249 251 253 255 256 263 270 263 271 271 276 274 275 271 278 310 344
345 342 341 342 336 325 340 352 355 343 332 350 356 336 332 161 202 339 185 191 237 217 252 260 256 251 249 253 251 247 249 253 255 261 260 260 265 268 272 291 251 207 200 352 22
344 339 334 325 339 354 351 355 340 329 342 351 340 328 356 299 331 319 282 184 177 182 198 259 248 247 244 254 251 240 248 247 250 250 255 262 264 264 274 289 202 163 153 20 56
343 333 342 339 341 339 355 346 324 335 319 332 341 321 308 308 318 300 290 252 196 184 270 264 254 246 238 243 248 242 242 244 247 252 259 264 260 264 265 301 246 176 133 81 43
348 352 350 5 4 17 354 322 328 332 323 311 289 292 305 187 292 301 300 251 244 183 207 278 250 250 239 231 236 245 239 250 253 266 267 265 276 269 263 197 141 142 153 108 350
349 354 356 14 75 22 339 317 319 310 286 285 278 292 256 249 303 322 298 269 225 221 192 269 252 245 236 221 237 245 244 237 244 248 259 262 270 280 285 254 227 191 180 264 333
357 351 9 44 34 350 329 326 324 315 306 300 277 275 277 302 307 292 289 284 251 251 227 266 257 244 247 233 245 233 237 246 249 250 259 257 261 273 286 291 243 221 263 332 324
359 351 20 1 341 345 340 342 331 287 294 301 285 269 273 279 304 286 282 282 281 252 253 186 251 240 242 251 255 251 249 243 249 247 255 258 266 252 286 287 313 282 271 312 333
354 355 1 9 338 339 342 339 322 300 297 288 284 296 285 264 281 283 288 280 269 258 257 179 247 236 243 250 249 251 248 255 254 253 248 252 262 249 272 277 273 284 312 338 344
360 355 357 355 355 344 334 327 300 288 279 286 285 298 291 277 268 271 289 293 269 262 244 241 228 218 240 248 246 253 243 254 255 249 251 251 259 254 252 274 268 274 297 312 310
6 360 356 343 340 338 334 309 298 298 289 298 293 297 270 276 260 261 290 289 266 250 240 246 238 240 269 244 260 256 252 251 253 257 255 256 254 256 255 273 289 288 305 308 321
357 357 355 342 351 349 338 321 297 294 287 281 286 284 280 268 261 264 282 291 276 239 227 252 237 257 273 264 243 248 247 269 250 257 259 259 262 254 265 282 270 273 286 340 328
359 356 355 352 356 340 335 313 303 302 285 292 288 289 287 272 273 255 266 305 319 271 254 253 245 243 260 266 258 259 257 259 264 264 256 265 233 244 269 241 277 288 306 340 339